����������;��������(kWh)
2019-10-21 00:00;75,25
2019-10-21 00:15;74,35
2019-10-21 00:30;73,75
2019-10-21 00:45;78,4
2019-10-21 01:00;74,6
2019-10-21 01:15;72,95
2019-10-21 01:30;74,25
2019-10-21 01:45;76,75
2019-10-21 02:00;74,2
2019-10-21 02:15;73,2
2019-10-21 02:30;73,2
2019-10-21 02:45;74,8
2019-10-21 03:00;75,95
2019-10-21 03:15;73,8
2019-10-21 03:30;72,8
2019-10-21 03:45;77,1
2019-10-21 04:00;77,7
2019-10-21 04:15;78,75
2019-10-21 04:30;78,2
2019-10-21 04:45;82,65
2019-10-21 05:00;81,15
2019-10-21 05:15;79,3
2019-10-21 05:30;82,8
2019-10-21 05:45;85,25
2019-10-21 06:00;81
2019-10-21 06:15;81,3
2019-10-21 06:30;80,75
2019-10-21 06:45;79,85
2019-10-21 07:00;78,15
2019-10-21 07:15;78,75
2019-10-21 07:30;77,45
2019-10-21 07:45;135,15
2019-10-21 08:00;139,25
2019-10-21 08:15;107,7
2019-10-21 08:30;103,95
2019-10-21 08:45;106,6
2019-10-21 09:00;126,25
2019-10-21 09:15;125,35
2019-10-21 09:30;143,05
2019-10-21 09:45;143
2019-10-21 10:00;144,8
2019-10-21 10:15;165,75
2019-10-21 10:30;156
2019-10-21 10:45;167,75
2019-10-21 11:00;168,85
2019-10-21 11:15;163,55
2019-10-21 11:30;177,45
2019-10-21 11:45;180
2019-10-21 12:00;169,75
2019-10-21 12:15;184,05
2019-10-21 12:30;180,4
2019-10-21 12:45;199,7
2019-10-21 13:00;193,6
2019-10-21 13:15;182,5
2019-10-21 13:30;178,5
2019-10-21 13:45;184,75
2019-10-21 14:00;177,35
2019-10-21 14:15;180,85
2019-10-21 14:30;181,1
2019-10-21 14:45;167,9
2019-10-21 15:00;176,5
2019-10-21 15:15;163,45
2019-10-21 15:30;166,05
2019-10-21 15:45;161,4
2019-10-21 16:00;172,35
2019-10-21 16:15;155,55
2019-10-21 16:30;162,5
2019-10-21 16:45;142,15
2019-10-21 17:00;153,2
2019-10-21 17:15;152,45
2019-10-21 17:30;134,05
2019-10-21 17:45;144,3
2019-10-21 18:00;144,5
2019-10-21 18:15;134,4
2019-10-21 18:30;141,1
2019-10-21 18:45;130,4
2019-10-21 19:00;146,6
2019-10-21 19:15;127,8
2019-10-21 19:30;127,2
2019-10-21 19:45;127,2
2019-10-21 20:00;125,1
2019-10-21 20:15;116,95
2019-10-21 20:30;114,5
2019-10-21 20:45;112,95
2019-10-21 21:00;114,1
2019-10-21 21:15;111,2
2019-10-21 21:30;105,5
2019-10-21 21:45;103,8
2019-10-21 22:00;97
2019-10-21 22:15;97
2019-10-21 22:30;92,15
2019-10-21 22:45;83,7
2019-10-21 23:00;92,6
2019-10-21 23:15;86,95
2019-10-21 23:30;88,15
2019-10-21 23:45;92,7
2019-10-22 00:00;82,85
2019-10-22 00:15;81,9
2019-10-22 00:30;83,1
2019-10-22 00:45;81,05
2019-10-22 01:00;80,55
2019-10-22 01:15;78,75
2019-10-22 01:30;80,1
2019-10-22 01:45;83,6
2019-10-22 02:00;80,05
2019-10-22 02:15;78,6
2019-10-22 02:30;76,2
2019-10-22 02:45;78,1
2019-10-22 03:00;75,35
2019-10-22 03:15;73,9
2019-10-22 03:30;74,25
2019-10-22 03:45;77,7
2019-10-22 04:00;77,9
2019-10-22 04:15;77,7
2019-10-22 04:30;75,5
2019-10-22 04:45;79,3
2019-10-22 05:00;78,2
2019-10-22 05:15;77,5
2019-10-22 05:30;79,5
2019-10-22 05:45;79,3
2019-10-22 06:00;78,2
2019-10-22 06:15;78,5
2019-10-22 06:30;76,8
2019-10-22 06:45;79,05
2019-10-22 07:00;77,85
2019-10-22 07:15;80,05
2019-10-22 07:30;81,15
2019-10-22 07:45;134,8
2019-10-22 08:00;125,3
2019-10-22 08:15;95,45
2019-10-22 08:30;117,15
2019-10-22 08:45;111,4
2019-10-22 09:00;135,3
2019-10-22 09:15;129,6
2019-10-22 09:30;135,3
2019-10-22 09:45;139,7
2019-10-22 10:00;164,2
2019-10-22 10:15;163,3
2019-10-22 10:30;172
2019-10-22 10:45;169,3
2019-10-22 11:00;180,9
2019-10-22 11:15;184,4
2019-10-22 11:30;183,15
2019-10-22 11:45;195
2019-10-22 12:00;178,3
2019-10-22 12:15;184,55
2019-10-22 12:30;183,95
2019-10-22 12:45;189
2019-10-22 13:00;175,2
2019-10-22 13:15;186,75
2019-10-22 13:30;189,9
2019-10-22 13:45;184,7
2019-10-22 14:00;179,5
2019-10-22 14:15;190,6
2019-10-22 14:30;170,9
2019-10-22 14:45;179,45
2019-10-22 15:00;173,85
2019-10-22 15:15;167,1
2019-10-22 15:30;173,9
2019-10-22 15:45;161,85
2019-10-22 16:00;165,45
2019-10-22 16:15;159,1
2019-10-22 16:30;154,3
2019-10-22 16:45;156,35
2019-10-22 17:00;161,2
2019-10-22 17:15;142,25
2019-10-22 17:30;148,95
2019-10-22 17:45;139,25
2019-10-22 18:00;148,35
2019-10-22 18:15;130,15
2019-10-22 18:30;140,3
2019-10-22 18:45;133,45
2019-10-22 19:00;142,55
2019-10-22 19:15;135,4
2019-10-22 19:30;128,4
2019-10-22 19:45;128,2
2019-10-22 20:00;123,8
2019-10-22 20:15;120,75
2019-10-22 20:30;114,45
2019-10-22 20:45;113,65
2019-10-22 21:00;111,2
2019-10-22 21:15;114,45
2019-10-22 21:30;109,7
2019-10-22 21:45;107,85
2019-10-22 22:00;101,8
2019-10-22 22:15;100,85
2019-10-22 22:30;95
2019-10-22 22:45;92,2
2019-10-22 23:00;99,3
2019-10-22 23:15;93,65
2019-10-22 23:30;89,2
2019-10-22 23:45;92,85
2019-10-23 00:00;82,5
2019-10-23 00:15;85,4
2019-10-23 00:30;85,2
2019-10-23 00:45;83,3
2019-10-23 01:00;84,1
2019-10-23 01:15;83,75
2019-10-23 01:30;86,45
2019-10-23 01:45;82,9
2019-10-23 02:00;81,9
2019-10-23 02:15;79,45
2019-10-23 02:30;79,55
2019-10-23 02:45;79,65
2019-10-23 03:00;78,9
2019-10-23 03:15;79,45
2019-10-23 03:30;80,3
2019-10-23 03:45;80,15
2019-10-23 04:00;79,9
2019-10-23 04:15;80,45
2019-10-23 04:30;80,1
2019-10-23 04:45;83,7
2019-10-23 05:00;79,05
2019-10-23 05:15;81,85
2019-10-23 05:30;80,75
2019-10-23 05:45;81,85
2019-10-23 06:00;81,4
2019-10-23 06:15;81,15
2019-10-23 06:30;80,75
2019-10-23 06:45;80,15
2019-10-23 07:00;82,75
2019-10-23 07:15;81,6
2019-10-23 07:30;83,95
2019-10-23 07:45;137,25
2019-10-23 08:00;124,3
2019-10-23 08:15;100,45
2019-10-23 08:30;113,1
2019-10-23 08:45;107,9
2019-10-23 09:00;134,7
2019-10-23 09:15;128,15
2019-10-23 09:30;136,8
2019-10-23 09:45;135,1
2019-10-23 10:00;147,8
2019-10-23 10:15;155,45
2019-10-23 10:30;153,95
2019-10-23 10:45;160,7
2019-10-23 11:00;169
2019-10-23 11:15;154,55
2019-10-23 11:30;171,9
2019-10-23 11:45;162,95
2019-10-23 12:00;162,9
2019-10-23 12:15;171,6
2019-10-23 12:30;164
2019-10-23 12:45;174,25
2019-10-23 13:00;167,65
2019-10-23 13:15;179,5
2019-10-23 13:30;163,9
2019-10-23 13:45;178,35
2019-10-23 14:00;156,5
2019-10-23 14:15;173,25
2019-10-23 14:30;153,3
2019-10-23 14:45;171
2019-10-23 15:00;153,8
2019-10-23 15:15;157,4
2019-10-23 15:30;149,1
2019-10-23 15:45;155,5
2019-10-23 16:00;161,9
2019-10-23 16:15;141,6
2019-10-23 16:30;152,55
2019-10-23 16:45;141,6
2019-10-23 17:00;148,55
2019-10-23 17:15;144,4
2019-10-23 17:30;140,1
2019-10-23 17:45;146,9
2019-10-23 18:00;130,5
2019-10-23 18:15;141,7
2019-10-23 18:30;126,6
2019-10-23 18:45;144,95
2019-10-23 19:00;132,25
2019-10-23 19:15;135,15
2019-10-23 19:30;133,65
2019-10-23 19:45;128,85
2019-10-23 20:00;128,95
2019-10-23 20:15;119,2
2019-10-23 20:30;115,9
2019-10-23 20:45;109
2019-10-23 21:00;106,4
2019-10-23 21:15;105,8
2019-10-23 21:30;101,3
2019-10-23 21:45;99,85
2019-10-23 22:00;90,9
2019-10-23 22:15;89,25
2019-10-23 22:30;88,35
2019-10-23 22:45;88,7
2019-10-23 23:00;94,65
2019-10-23 23:15;88
2019-10-23 23:30;89,7
2019-10-23 23:45;92,5
2019-10-24 00:00;81,45
2019-10-24 00:15;83,45
2019-10-24 00:30;83,4
2019-10-24 00:45;81,9
2019-10-24 01:00;82,05
2019-10-24 01:15;80,8
2019-10-24 01:30;81
2019-10-24 01:45;82,1
2019-10-24 02:00;79,6
2019-10-24 02:15;79
2019-10-24 02:30;79,85
2019-10-24 02:45;79,3
2019-10-24 03:00;79,75
2019-10-24 03:15;78,35
2019-10-24 03:30;79,2
2019-10-24 03:45;80,45
2019-10-24 04:00;80,1
2019-10-24 04:15;82,95
2019-10-24 04:30;80,1
2019-10-24 04:45;81,9
2019-10-24 05:00;82,55
2019-10-24 05:15;80,8
2019-10-24 05:30;82,55
2019-10-24 05:45;82,3
2019-10-24 06:00;82,7
2019-10-24 06:15;81,85
2019-10-24 06:30;79,8
2019-10-24 06:45;78,4
2019-10-24 07:00;77,7
2019-10-24 07:15;82,65
2019-10-24 07:30;90,85
2019-10-24 07:45;142,35
2019-10-24 08:00;120,85
2019-10-24 08:15;90,15
2019-10-24 08:30;103,75
2019-10-24 08:45;93,1
2019-10-24 09:00;108,9
2019-10-24 09:15;101,75
2019-10-24 09:30;108,8
2019-10-24 09:45;97,55
2019-10-24 10:00;106,5
2019-10-24 10:15;99,95
2019-10-24 10:30;93,2
2019-10-24 10:45;91,35
2019-10-24 11:00;90,95
2019-10-24 11:15;87,7
2019-10-24 11:30;91,6
2019-10-24 11:45;91,55
2019-10-24 12:00;94,75
2019-10-24 12:15;91,75
2019-10-24 12:30;95,1
2019-10-24 12:45;91,5
2019-10-24 13:00;97,85
2019-10-24 13:15;95,7
2019-10-24 13:30;93,3
2019-10-24 13:45;96,6
2019-10-24 14:00;95,75
2019-10-24 14:15;92,7
2019-10-24 14:30;94,6
2019-10-24 14:45;92,55
2019-10-24 15:00;92,1
2019-10-24 15:15;94,7
2019-10-24 15:30;92,85
2019-10-24 15:45;89,95
2019-10-24 16:00;92,9
2019-10-24 16:15;91,65
2019-10-24 16:30;87,5
2019-10-24 16:45;91,35
2019-10-24 17:00;88,45
2019-10-24 17:15;88,15
2019-10-24 17:30;88,25
2019-10-24 17:45;83,55
2019-10-24 18:00;80,2
2019-10-24 18:15;82,5
2019-10-24 18:30;79,1
2019-10-24 18:45;83,65
2019-10-24 19:00;91,6
2019-10-24 19:15;94,55
2019-10-24 19:30;95,5
2019-10-24 19:45;93,15
2019-10-24 20:00;100,05
2019-10-24 20:15;95,5
2019-10-24 20:30;94,35
2019-10-24 20:45;92,75
2019-10-24 21:00;85,15
2019-10-24 21:15;85,55
2019-10-24 21:30;86,1
2019-10-24 21:45;86,55
2019-10-24 22:00;79,75
2019-10-24 22:15;83
2019-10-24 22:30;80,3
2019-10-24 22:45;78,5
2019-10-24 23:00;84,45
2019-10-24 23:15;79,25
2019-10-24 23:30;84,2
2019-10-24 23:45;88
2019-10-25 00:00;77,6
2019-10-25 00:15;77,4
2019-10-25 00:30;77,95
2019-10-25 00:45;79,3
2019-10-25 01:00;78,8
2019-10-25 01:15;77,35
2019-10-25 01:30;77,4
2019-10-25 01:45;78,6
2019-10-25 02:00;78,6
2019-10-25 02:15;78,15
2019-10-25 02:30;77,55
2019-10-25 02:45;77,4
2019-10-25 03:00;78,3
2019-10-25 03:15;74,95
2019-10-25 03:30;72,65
2019-10-25 03:45;74,9
2019-10-25 04:00;75,2
2019-10-25 04:15;74,7
2019-10-25 04:30;77
2019-10-25 04:45;75,5
2019-10-25 05:00;75,95
2019-10-25 05:15;76,15
2019-10-25 05:30;74,85
2019-10-25 05:45;76,4
2019-10-25 06:00;73,2
2019-10-25 06:15;74,75
2019-10-25 06:30;73,5
2019-10-25 06:45;71,25
2019-10-25 07:00;72,6
2019-10-25 07:15;70,85
2019-10-25 07:30;70,9
2019-10-25 07:45;70,3
2019-10-25 08:00;79,35
2019-10-25 08:15;81,45
2019-10-25 08:30;78,95
2019-10-25 08:45;81,25
2019-10-25 09:00;84,15
2019-10-25 09:15;81,65
2019-10-25 09:30;85,5
2019-10-25 09:45;81,15
2019-10-25 10:00;81,1
2019-10-25 10:15;82,05
2019-10-25 10:30;82,7
2019-10-25 10:45;83,1
2019-10-25 11:00;81,45
2019-10-25 11:15;90,35
2019-10-25 11:30;87,65
2019-10-25 11:45;86,85
2019-10-25 12:00;87,3
2019-10-25 12:15;90,65
2019-10-25 12:30;86,65
2019-10-25 12:45;86,7
2019-10-25 13:00;86,35
2019-10-25 13:15;88,2
2019-10-25 13:30;89,15
2019-10-25 13:45;87,85
2019-10-25 14:00;91,4
2019-10-25 14:15;87,45
2019-10-25 14:30;88,4
2019-10-25 14:45;89,05
2019-10-25 15:00;90,85
2019-10-25 15:15;92,45
2019-10-25 15:30;87,25
2019-10-25 15:45;87,4
2019-10-25 16:00;83,35
2019-10-25 16:15;80,55
2019-10-25 16:30;80,2
2019-10-25 16:45;82,8
2019-10-25 17:00;78,3
2019-10-25 17:15;77,25
2019-10-25 17:30;77,5
2019-10-25 17:45;77,2
2019-10-25 18:00;77
2019-10-25 18:15;78,5
2019-10-25 18:30;83,95
2019-10-25 18:45;94,5
2019-10-25 19:00;96,1
2019-10-25 19:15;95,25
2019-10-25 19:30;93,5
2019-10-25 19:45;100,25
2019-10-25 20:00;100,6
2019-10-25 20:15;94,3
2019-10-25 20:30;96,8
2019-10-25 20:45;95,7
2019-10-25 21:00;97,25
2019-10-25 21:15;97,9
2019-10-25 21:30;96,2
2019-10-25 21:45;93,25
2019-10-25 22:00;85,05
2019-10-25 22:15;88,35
2019-10-25 22:30;86,9
2019-10-25 22:45;85,8
2019-10-25 23:00;92,55
2019-10-25 23:15;87,05
2019-10-25 23:30;90,45
2019-10-25 23:45;95,05
2019-10-26 00:00;86,65
2019-10-26 00:15;85,65
2019-10-26 00:30;86,8
2019-10-26 00:45;83,9
2019-10-26 01:00;76
2019-10-26 01:15;72,9
2019-10-26 01:30;72,95
2019-10-26 01:45;71,65
2019-10-26 02:00;74,45
2019-10-26 02:15;74,25
2019-10-26 02:30;72,4
2019-10-26 02:45;74,4
2019-10-26 03:00;73,75
2019-10-26 03:15;72
2019-10-26 03:30;72,45
2019-10-26 03:45;73,35
2019-10-26 04:00;73,65
2019-10-26 04:15;75,05
2019-10-26 04:30;76,45
2019-10-26 04:45;74,35
2019-10-26 05:00;73,5
2019-10-26 05:15;74,9
2019-10-26 05:30;75,45
2019-10-26 05:45;75,45
2019-10-26 06:00;75,15
2019-10-26 06:15;73,95
2019-10-26 06:30;72,75
2019-10-26 06:45;71,1
2019-10-26 07:00;71,55
2019-10-26 07:15;71,55
2019-10-26 07:30;70,25
2019-10-26 07:45;67,05
2019-10-26 08:00;64,75
2019-10-26 08:15;66,65
2019-10-26 08:30;67,3
2019-10-26 08:45;68,2
2019-10-26 09:00;75,8
2019-10-26 09:15;71,65
2019-10-26 09:30;73,75
2019-10-26 09:45;75,15
2019-10-26 10:00;73,3
2019-10-26 10:15;71,5
2019-10-26 10:30;74,55
2019-10-26 10:45;78,25
2019-10-26 11:00;76,75
2019-10-26 11:15;79,3
2019-10-26 11:30;79,15
2019-10-26 11:45;79
2019-10-26 12:00;78,2
2019-10-26 12:15;76,05
2019-10-26 12:30;79,65
2019-10-26 12:45;81,05
2019-10-26 13:00;76,7
2019-10-26 13:15;74,2
2019-10-26 13:30;78,8
2019-10-26 13:45;75,3
2019-10-26 14:00;75,2
2019-10-26 14:15;72,35
2019-10-26 14:30;73,35
2019-10-26 14:45;73,5
2019-10-26 15:00;74,2
2019-10-26 15:15;72,65
2019-10-26 15:30;74,8
2019-10-26 15:45;75,25
2019-10-26 16:00;76,7
2019-10-26 16:15;74,15
2019-10-26 16:30;71,4
2019-10-26 16:45;73,05
2019-10-26 17:00;73,5
2019-10-26 17:15;72,35
2019-10-26 17:30;73,75
2019-10-26 17:45;69,6
2019-10-26 18:00;71,05
2019-10-26 18:15;71,55
2019-10-26 18:30;74,3
2019-10-26 18:45;79,5
2019-10-26 19:00;80,05
2019-10-26 19:15;82,25
2019-10-26 19:30;84,05
2019-10-26 19:45;85,05
2019-10-26 20:00;87,55
2019-10-26 20:15;84,6
2019-10-26 20:30;87,25
2019-10-26 20:45;85,6
2019-10-26 21:00;86,25
2019-10-26 21:15;85,3
2019-10-26 21:30;85,4
2019-10-26 21:45;85,85
2019-10-26 22:00;80,2
2019-10-26 22:15;77
2019-10-26 22:30;75,1
2019-10-26 22:45;74,25
2019-10-26 23:00;79,55
2019-10-26 23:15;77,15
2019-10-26 23:30;78,7
2019-10-26 23:45;82,85
2019-10-27 00:00;75,1
2019-10-27 00:15;77,8
2019-10-27 00:30;77,1
2019-10-27 00:45;76,9
2019-10-27 01:00;77
2019-10-27 01:15;76,8
2019-10-27 01:30;75,7
2019-10-27 01:45;75,65
2019-10-27 02:00;77,85
2019-10-27 02:15;78,85
2019-10-27 02:30;76,15
2019-10-27 02:45;76,7
2019-10-27 03:00;76,25
2019-10-27 03:15;76,7
2019-10-27 03:15;78,65
2019-10-27 03:30;76,45
2019-10-27 03:30;76,7
2019-10-27 03:45;79,35
2019-10-27 03:45;74,9
2019-10-27 04:00;79,6
2019-10-27 04:00;77,5
2019-10-27 04:15;77,3
2019-10-27 04:30;77,15
2019-10-27 04:45;76,45
2019-10-27 05:00;77,7
2019-10-27 05:15;77,05
2019-10-27 05:30;74,1
2019-10-27 05:45;72,1
2019-10-27 06:00;72,15
2019-10-27 06:15;73,75
2019-10-27 06:30;73,75
2019-10-27 06:45;70,35
2019-10-27 07:00;65,55
2019-10-27 07:15;64,7
2019-10-27 07:30;64,9
2019-10-27 07:45;67,3
2019-10-27 08:00;65,75
2019-10-27 08:15;66,55
2019-10-27 08:30;65,8
2019-10-27 08:45;66,35
2019-10-27 09:00;69,85
2019-10-27 09:15;66,1
2019-10-27 09:30;68,75
2019-10-27 09:45;68,75
2019-10-27 10:00;66,05
2019-10-27 10:15;67,95
2019-10-27 10:30;71,9
2019-10-27 10:45;68,55
2019-10-27 11:00;67,75
2019-10-27 11:15;68
2019-10-27 11:30;70,9
2019-10-27 11:45;70,75
2019-10-27 12:00;71,45
2019-10-27 12:15;69,4
2019-10-27 12:30;71,9
2019-10-27 12:45;71,5
2019-10-27 13:00;74,4
2019-10-27 13:15;69
2019-10-27 13:30;68,6
2019-10-27 13:45;71,2
2019-10-27 14:00;73,9
2019-10-27 14:15;73,65
2019-10-27 14:30;72,45
2019-10-27 14:45;75,45
2019-10-27 15:00;73,95
2019-10-27 15:15;72,2
2019-10-27 15:30;71,25
2019-10-27 15:45;74,95
2019-10-27 16:00;70,65
2019-10-27 16:15;70,4
2019-10-27 16:30;71,3
2019-10-27 16:45;71,75
2019-10-27 17:00;72,5
2019-10-27 17:15;73,75
2019-10-27 17:30;72,6
2019-10-27 17:45;75,05
2019-10-27 18:00;79,1
2019-10-27 18:15;78,3
2019-10-27 18:30;81,65
2019-10-27 18:45;87,35
2019-10-27 19:00;83,65
2019-10-27 19:15;86,75
2019-10-27 19:30;85,6
2019-10-27 19:45;86,2
2019-10-27 20:00;87,65
2019-10-27 20:15;86,8
2019-10-27 20:30;88,15
2019-10-27 20:45;87,6
2019-10-27 21:00;84,8
2019-10-27 21:15;85,65
2019-10-27 21:30;83,15
2019-10-27 21:45;83,9
2019-10-27 22:00;79,45
2019-10-27 22:15;78,75
2019-10-27 22:30;78,6
2019-10-27 22:45;78,4
2019-10-27 23:00;82,9
2019-10-27 23:15;81,3
2019-10-27 23:30;82,5
2019-10-27 23:45;85,2

